Location: Chèvreville
(49.1099°N, 2.8495°E)
Time: 04:34:47
(UTC+00:00)

Tiangong - Visible Passes

Search period start: 15 January 2026 00:00
Search period end: 25 January 2026 00:00
Orbit: 378 x 394 km, 41.5° (Epoch: 14 January)

Date Brightness Start Highest point End Pass type
(mag) Time Alt. Az. Time Alt. Az. Time Alt. Az.
18 Jan 0.7 06:47:51 10° SSW 06:49:52 16° SSE 06:51:54 10° SE visible
19 Jan 0.8 05:49:30 10° S 05:50:51 12° SSE 05:52:13 10° SE visible
20 Jan 0.3 06:25:37 10° SW 06:27:56 19° S 06:30:16 10° SE visible
21 Jan 0.3 05:27:57 14° S 05:28:50 16° SSE 05:30:52 10° SE visible
22 Jan 0.0 06:03:47 12° SW 06:05:56 20° S 06:08:23 10° SE visible
23 Jan 0.3 05:07:17 18° SSE 05:07:17 18° SSE 05:09:05 10° SE visible
23 Jan 0.1 06:40:40 10° SW 06:43:02 19° S 06:45:22 10° SE visible
24 Jan -0.2 05:42:58 18° SSW 05:43:50 20° S 05:46:17 10° SE visible
